Roberts International Airport

Jump to: basic info | weather | frequencies | runways | comments

Related pages: nearby airports | nearby navaids | notams | map

Basic information (top)

Codes: ROB GLRB
Location: lon 6.233790, lat -10.362300, elev 31 ft / 9 m msl
Status: medium_airport
Scheduled airline service: yes
Links: Wikipedia Mobile

Weather (top)

Current conditions (rec'd 2014/07/26 07:00Z):

GLRB 260700Z 00000KT 7000 -RA FEW005 BKN011 FEW022 CB 24/23 Q1014 RMK CB-W TEMPO RA

Airport forecast (rec'd 2014/07/26 00:21Z):

TAF TAF GLRB 252200Z 2600/2706 23012KT 8000 BKN014 FEW024 CB 
      TEMPO 2601/2605 06005KT 6000 RA/RADZ SCT005 BKN011 
      TEMPO 2606/2612 20008KT 9000 SCT013 BKN090

Frequencies (top)

Verify before use: may be inaccurate or out of date.

A/G: 345.2 MHz (A/G VOICE RDO)
APP: 124.5 MHz (ROBERTS APP)
GND: 121.9 MHz (GND)
TWR: 118.3 MHz (ROBERTS TWR)

Runways (top)

04/22: 11,000 x 150 ft (3,353 x 46 m) — paved — lighted — threshold 22 displaced 1,200 ft (366 m)

Latest comments (top)

No comments yet for Roberts International Airport

More... (top)

See also NOTAMs and nearby airports and navaids, or visit the Roberts International Airport page at the main OurAirports website..